Orange City, IA

4:06 PM CDT on April 25, 2018 (GMT -0500)
Orange City Municipal

Weather History for KORC - October, 2012

Change the Weather History Date:

Monday, October 8, 2012

  Actual Average Record
Temperature  
Mean Temperature 53 °F -  
Max Temperature 71 °F 68 °F 138 °F (1997)
Min Temperature 35 °F 44 °F 21 °F (2000)
Degree Days  
Heating Degree Days 12    
Growing Degree Days 3 (Base 50)    
Moisture  
Dew Point 29 °F    
Average Humidity 45    
Maximum Humidity 76    
Minimum Humidity 14    
Precipitation  
Precipitation 0.00 in - - ()
Sea Level Pressure  
Sea Level Pressure 29.79 in    
Wind  
Wind Speed 11 mph (SW)    
Max Wind Speed 24 mph    
Max Gust Speed 33 mph    
Visibility 10 miles    
Events Rain    
Averages and records for this station are not official NWS values.
T = Trace of Precipitation, MM = Missing Value Source: NWS Daily Summary

Daily Weather History Graph

Daily Weather History Graph

Search for Another Location

Airport or City:

Astronomy

Oct. 08, 2012 Rise Set
Actual Time 7:30 AM CDT 6:52 PM CDT
Civil Twilight 7:01 AM CDT 7:20 PM CDT
Nautical Twilight 6:28 AM CDT 7:53 PM CDT
Astronomical Twilight 5:55 AM CDT 8:26 PM CDT
Moon 12:00 AM CDT (10/8) 2:51 PM CDT (10/8)
Length of Visible Light 12h 19m
Length of Day
11h 22m
Last Quarter, 46% of the Moon is Illuminated
Oct 8
Last Quarter
Oct 15
New
Oct 21
First Quarter
Oct 29
Full
Nov 6
Last Quarter

Hourly Weather History & Observations

Time (CDT) Temp. Windchill Dew Point Humidity Pressure Visibility Wind Dir Wind Speed Gust Speed Precip Events Conditions
12:15 AM 37.4 °F 30.3 °F 21.2 °F 52% 29.89 in 10.0 mi SSW 10.4 mph - N/A   Clear
12:35 AM 37.4 °F 30.3 °F 23.0 °F 56% 29.89 in 10.0 mi SSW 10.4 mph - N/A   Clear
12:55 AM 37.4 °F 30.3 °F 23.0 °F 56% 29.89 in 10.0 mi SSW 10.4 mph - N/A   Clear
1:15 AM 37.4 °F 30.3 °F 23.0 °F 56% 29.89 in 10.0 mi SSW 10.4 mph - N/A   Clear
1:35 AM 37.4 °F 31.4 °F 24.8 °F 60% 29.89 in 10.0 mi SSW 8.1 mph - N/A   Clear
1:55 AM 37.4 °F 32.1 °F 24.8 °F 60% 29.88 in 10.0 mi SSW 6.9 mph - N/A   Clear
2:15 AM 37.4 °F 32.8 °F 24.8 °F 60% 29.88 in 10.0 mi SSW 5.8 mph - N/A   Clear
2:35 AM 35.6 °F 31.7 °F 24.8 °F 65% 29.88 in 10.0 mi SSW 4.6 mph - N/A   Clear
2:55 AM 35.6 °F 31.7 °F 24.8 °F 65% 29.87 in 10.0 mi South 4.6 mph - N/A   Clear
3:15 AM 35.6 °F 31.7 °F 24.8 °F 65% 29.87 in 10.0 mi South 4.6 mph - N/A   Clear
3:35 AM 35.6 °F 32.8 °F 24.8 °F 65% 29.86 in 10.0 mi South 3.5 mph - N/A   Clear
3:55 AM 37.4 °F 34.9 °F 26.6 °F 65% 29.86 in 10.0 mi South 3.5 mph - N/A   Clear
4:15 AM 37.4 °F 33.8 °F 26.6 °F 65% 29.85 in 10.0 mi South 4.6 mph - N/A   Clear
4:35 AM 37.4 °F 33.8 °F 26.6 °F 65% 29.85 in 10.0 mi South 4.6 mph - N/A   Clear
4:55 AM 37.4 °F 32.1 °F 28.4 °F 70% 29.85 in 10.0 mi South 6.9 mph - N/A   Clear
5:15 AM 39.2 °F 35.0 °F 28.4 °F 65% 29.85 in 10.0 mi South 5.8 mph - N/A   Scattered Clouds
5:35 AM 39.2 °F 35.0 °F 28.4 °F 65% 29.84 in 10.0 mi South 5.8 mph - N/A   Mostly Cloudy
5:55 AM 41.0 °F 35.8 °F 28.4 °F 61% 29.84 in 10.0 mi South 8.1 mph - N/A   Scattered Clouds
6:15 AM 41.0 °F 35.8 °F 28.4 °F 61% 29.84 in 10.0 mi South 8.1 mph - N/A   Scattered Clouds
6:35 AM 41.0 °F 36.4 °F 28.4 °F 61% 29.84 in 10.0 mi South 6.9 mph - N/A   Scattered Clouds
6:55 AM 41.0 °F 35.8 °F 28.4 °F 61% 29.83 in 10.0 mi South 8.1 mph - N/A   Scattered Clouds
7:15 AM 41.0 °F 35.2 °F 28.4 °F 61% 29.82 in 10.0 mi South 9.2 mph - N/A   Scattered Clouds
7:35 AM 41.0 °F 35.8 °F 28.4 °F 61% 29.82 in 10.0 mi South 8.1 mph - N/A   Overcast
7:55 AM 42.8 °F 37.0 °F 28.4 °F 57% 29.81 in 10.0 mi South 10.4 mph - N/A   Mostly Cloudy
8:15 AM 42.8 °F 36.6 °F 30.2 °F 61% 29.81 in 10.0 mi South 11.5 mph - N/A   Scattered Clouds
8:35 AM 42.8 °F 36.6 °F 30.2 °F 61% 29.81 in 10.0 mi SSW 11.5 mph - N/A   Clear
8:55 AM 44.6 °F 38.1 °F 30.2 °F 57% 29.81 in 10.0 mi SSW 13.8 mph - N/A   Clear
9:15 AM 44.6 °F 38.4 °F 30.2 °F 57% 29.80 in 10.0 mi SSW 12.7 mph - N/A   Clear
9:35 AM 46.4 °F 39.2 °F 28.4 °F 50% 29.80 in 10.0 mi South 18.4 mph - N/A   Clear
9:55 AM 48.2 °F - 28.4 °F 46% 29.79 in 10.0 mi SSW 17.3 mph - N/A   Clear
10:15 AM 48.2 °F - 28.4 °F 46% 29.80 in 10.0 mi SSW 16.1 mph 20.7 mph N/A   Clear
10:35 AM 50.0 °F - 28.4 °F 43% 29.79 in 10.0 mi SSW 16.1 mph 23.0 mph N/A   Clear
10:55 AM 53.6 °F - 28.4 °F 38% 29.78 in 10.0 mi SSW 20.7 mph - N/A   Clear
11:15 AM 55.4 °F - 26.6 °F 33% 29.77 in 10.0 mi SW 18.4 mph 21.9 mph N/A   Clear
11:35 AM 57.2 °F - 26.6 °F 31% 29.76 in 10.0 mi SSW 19.6 mph 24.2 mph N/A   Clear
11:55 AM 60.8 °F - 26.6 °F 27% 29.75 in 10.0 mi SSW 20.7 mph - N/A   Clear
12:15 PM 62.6 °F - 24.8 °F 24% 29.75 in 10.0 mi SSW 19.6 mph 26.5 mph N/A   Clear
12:35 PM 64.4 °F - 23.0 °F 21% 29.75 in 10.0 mi SSW 19.6 mph 26.5 mph N/A   Scattered Clouds
12:55 PM 64.4 °F - 23.0 °F 21% 29.73 in 10.0 mi SW 21.9 mph 27.6 mph N/A   Scattered Clouds
1:15 PM 66.2 °F - 21.2 °F 18% 29.72 in 10.0 mi SSW 21.9 mph 27.6 mph N/A   Scattered Clouds
1:35 PM 69.8 °F - 21.2 °F 16% 29.72 in 10.0 mi SW 23.0 mph 31.1 mph N/A   Clear
1:55 PM 68.0 °F - 21.2 °F 17% 29.71 in 10.0 mi SW 24.2 mph 31.1 mph N/A   Clear
2:15 PM 68.0 °F - 21.2 °F 17% 29.70 in 10.0 mi SW 24.2 mph 29.9 mph N/A   Clear
2:35 PM 69.8 °F - 21.2 °F 16% 29.69 in 10.0 mi SW 24.2 mph 29.9 mph N/A   Clear
2:55 PM 71.6 °F - 19.4 °F 14% 29.69 in 10.0 mi WSW 20.7 mph 29.9 mph N/A   Scattered Clouds
3:15 PM 71.6 °F - 21.2 °F 15% 29.69 in 10.0 mi SW 23.0 mph 32.2 mph N/A   Mostly Cloudy
3:35 PM 71.6 °F - 23.0 °F 16% 29.68 in 10.0 mi West 23.0 mph 29.9 mph N/A   Mostly Cloudy
3:55 PM 71.6 °F - 24.8 °F 17% 29.69 in 10.0 mi West 20.7 mph 33.4 mph N/A   Scattered Clouds
4:15 PM 71.6 °F - 26.6 °F 19% 29.69 in 10.0 mi West 21.9 mph 27.6 mph N/A   Scattered Clouds
4:35 PM 71.6 °F - 30.2 °F 22% 29.69 in 10.0 mi West 19.6 mph 26.5 mph N/A   Clear
4:55 PM 69.8 °F - 30.2 °F 23% 29.70 in 10.0 mi West 16.1 mph 21.9 mph N/A   Clear
5:15 PM 69.8 °F - 32.0 °F 25% 29.70 in 10.0 mi West 18.4 mph 25.3 mph N/A   Clear
5:35 PM 68.0 °F - 33.8 °F 28% 29.71 in 10.0 mi West 18.4 mph 21.9 mph N/A   Clear
5:55 PM 66.2 °F - 32.0 °F 28% 29.71 in 10.0 mi West 15.0 mph 20.7 mph N/A   Clear
6:15 PM 66.2 °F - 33.8 °F 30% 29.71 in 10.0 mi WNW 10.4 mph - N/A   Clear
6:35 PM 64.4 °F - 35.6 °F 34% 29.72 in 7.0 mi WNW 11.5 mph - N/A   Mostly Cloudy
6:55 PM 64.4 °F - 35.6 °F 34% 29.73 in 10.0 mi WNW 12.7 mph - N/A   Overcast
7:15 PM 64.4 °F - 35.6 °F 34% 29.75 in 10.0 mi WNW 12.7 mph - N/A   Overcast
7:35 PM 62.6 °F - 39.2 °F 42% 29.76 in 10.0 mi NW 10.4 mph - N/A Rain Light Rain
7:55 PM 62.6 °F - 39.2 °F 42% 29.77 in 10.0 mi WNW 15.0 mph - N/A Rain Light Rain
8:15 PM 62.6 °F - 39.2 °F 42% 29.76 in 10.0 mi NNW 17.3 mph 21.9 mph N/A Rain Light Rain
8:35 PM 60.8 °F - 39.2 °F 45% 29.77 in 10.0 mi NNW 12.7 mph 17.3 mph N/A   Overcast
8:55 PM 60.8 °F - 39.2 °F 45% 29.78 in 10.0 mi North 13.8 mph 17.3 mph N/A   Mostly Cloudy
9:15 PM 57.2 °F - 42.8 °F 59% 29.79 in 3.0 mi NNW 6.9 mph - N/A Rain Light Rain
9:35 PM 57.2 °F - 42.8 °F 59% 29.79 in 10.0 mi North 5.8 mph - N/A   Overcast
9:55 PM 57.2 °F - 42.8 °F 59% 29.80 in 10.0 mi North 3.5 mph - N/A Rain Light Rain
10:15 PM 57.2 °F - 41.0 °F 55% 29.81 in 10.0 mi Calm Calm - N/A   Overcast
10:55 PM 55.4 °F - 44.6 °F 67% 29.81 in 10.0 mi Calm Calm - N/A   Overcast
11:35 PM 53.6 °F - 44.6 °F 72% 29.79 in 10.0 mi Calm Calm - N/A Rain Light Rain
11:55 PM 51.8 °F - 44.6 °F 76% 29.79 in 10.0 mi Calm Calm - N/A Rain Light Rain